Terug naar catalogus

COSMOS 970 DEB

ActiefLEO
NORAD 12868·DEBRIS·🇷🇺 Russia

Gelanceerd Dec 21, 1977 vanaf Baikonur Cosmodrome

Loading…

Volgende Passages (komende 24 uur)

TLE

VersSource: Space-Track

Epoch: Sep 14, 2026, 05:42 UTC

1 12868U 77121AW  26257.23783873  .00000408  00000-0  50540-3 0  9995
2 12868  65.7647 340.0412 0049830  41.5354 349.9948 13.75181172424240

Volg COSMOS 970 DEB in realtime met AllMySat

Download on the App Store